Погода в Боровлянке

Россия / Курганская область     54°37′20″N   64°59′22″E
темп.,
°C
ветер,
м/с
пор.,
м/с
влажн.,
%
обл.,
%
осадки,
мм/ч
давл.,
гПа
погр.,
м
18 августа, чт
чт1823:00+13всв2351100 0.0 102174
02:00+11ссв3557100 0.0 102189
05:00+8ссв35714 0.0 1022111
08:00+10ссв4666100 0.0 1023416
11:00+14ссв554564 0.1 10231892
14:00+16ссв6637100 0.0 10232352
17:00+15ссв573985 0.0 10242142
20:00+11с475237 0.0 1025152
19 августа, пт
пт1923:00+10ссв495978 0.0 1026242
02:00+6ссв36785 0.0 1027109
05:00+5ссв34890 0.0 102960
08:00+9с46715 0.0 1030387
11:00+13с5652100 0.0 10291310
14:00+16с5642100 0.0 10281630
17:00+17ссз584496 0.0 10261726
20:00+15ссз2457100 0.0 102587
20 августа, сб
сб2023:00+14зсз3863100 0.0 1024218
02:00+14ссз2465100 0.0 1023115
05:00+13св2369100 0.0 102397
08:00+13в2280100 0.1 1025224
11:00+14в2284100 0.7 1025307
14:00+13ююв2293100 2.3 1025175
17:00+13юз2391100 4.4 1023229
20:00+12вюв2295100 0.2 102443
21 августа, вс
вс2123:00+12вюв229413 0.2 102633
02:00+10ююв22955 0.0 102512
05:00+9ююз119454 0.0 102610
08:00+12юз1288100 0.0 1027117
11:00+14зюз2281100 0.0 1027269
14:00+16зсз2276100 0.0 1027437
17:00+16с2277100 0.0 1026408
20:00+15ссв2285100 0.0 102635
22 августа, пн
пн2223:00+12всв3794100 0.0 1027129
02:00+10всв339153 0.0 102746
05:00+9ссв349397 0.0 102859
08:00+13ссв4673100 0.0 1029293
11:00+18св45495 0.0 10291344
14:00+20св45383 0.0 10291718
17:00+20св45400 0.0 10281728
20:00+15св455936 0.0 102965